GFSGL_850_rhum_000.txt.gz
RH
19 20 22 28 34 35 21 13 18 24 30 38 35 38 46 61 52 45 43 56 60 62 68 69 66 71 75 77 80 82 84 75 81 72 77 66 60 62 64 51 51 53 52
23 30 25 29 44 51 26 16 20 20 21 27 32 37 44 55 53 55 50 52 61 71 75 77 64 71 64 74 80 76 70 73 87 85 74 76 73 69 68 57 57 61 57
37 39 45 42 52 54 41 27 18 19 20 29 34 34 37 42 48 42 45 53 58 61 62 60 57 58 55 56 59 63 62 64 75 84 80 77 78 69 68 59 63 66 60
41 42 47 50 51 64 50 36 28 22 27 30 30 32 38 45 42 37 40 50 60 64 61 55 58 52 56 60 64 66 67 62 68 75 77 73 78 72 70 69 71 70 65
47 42 39 44 61 75 59 54 34 31 31 33 32 36 45 48 45 42 47 52 55 60 61 56 54 57 51 53 61 63 67 63 69 72 71 70 73 71 72 73 82 74 70
52 47 51 65 72 80 84 70 62 42 36 35 36 43 48 51 44 48 55 56 55 59 59 58 60 60 50 52 55 58 62 64 73 75 77 78 70 73 74 83 86 79 97
55 60 71 77 83 87 78 64 79 41 32 31 36 49 47 49 41 58 64 66 64 67 63 66 66 64 56 58 57 57 60 70 75 77 83 76 80 75 82 88 90 91 95
50 68 77 84 79 91 57 59 80 46 31 34 46 48 42 51 46 64 71 70 70 69 64 66 68 68 62 64 63 62 67 69 72 81 85 84 76 68 73 90 99 94 79
59 69 77 87 76 79 62 46 76 75 53 53 57 56 55 49 54 62 63 71 64 66 68 69 71 69 68 68 67 72 64 60 80 84 85 77 63 72 89 96 78 92 99
66 74 80 90 91 73 61 60 77 74 74 80 66 69 68 83 75 68 72 64 60 65 70 68 74 74 66 63 58 62 70 79 79 72 64 52 72 81 85 84 83 94 99
60 87 94 94 97 79 68 80 87 78 73 56 54 46 47 64 76 74 66 60 61 70 71 74 71 65 56 53 59 74 83 85 81 75 60 74 80 81 83 80 75 72 98
69 97 100 97 89 72 70 80 83 70 60 54 58 52 56 58 80 68 54 51 64 72 72 71 67 65 53 48 60 74 88 82 77 75 82 82 85 86 89 86 68 70 96
82 99 99 98 98 93 88 85 74 66 59 51 45 60 62 69 73 50 46 56 68 72 73 71 75 67 54 52 70 91 91 82 77 83 83 88 92 90 84 84 72 76 90
74 93 100 98 92 79 64 63 67 67 62 56 56 60 61 65 56 53 60 68 72 67 76 80 73 68 57 63 85 99 87 76 82 84 85 85 80 71 74 82 82 94 84
67 79 89 88 84 76 71 64 60 56 51 50 60 60 63 66 63 64 69 71 72 75 77 75 73 67 76 91 99 87 81 82 78 69 62 61 62 59 61 80 82 90 94
44 44 55 78 70 64 62 64 57 56 51 57 61 68 73 70 68 71 74 76 76 74 74 71 66 74 86 89 81 77 83 78 69 65 61 57 54 53 58 76 86 93 93
49 46 53 50 55 57 56 59 56 53 58 66 76 72 72 73 73 74 73 76 68 64 65 57 63 71 80 80 77 74 74 70 65 62 58 52 47 47 60 82 93 92 89
47 40 45 49 57 57 60 48 49 69 70 65 62 67 71 69 70 69 74 72 65 66 63 64 70 71 72 76 74 74 63 55 36 39 48 46 43 41 50 83 97 99 92
56 52 43 49 61 65 65 68 68 71 73 68 68 71 75 70 63 63 67 66 64 66 70 71 73 77 78 77 76 70 66 38 24 39 45 44 41 37 42 78 92 100 100
61 51 62 64 62 62 63 62 61 63 69 75 72 74 70 60 65 62 55 48 42 52 67 77 80 80 76 72 69 58 28 18 37 44 44 42 38 35 37 61 86 93 97
60 59 52 48 53 55 55 60 64 64 67 68 68 72 67 73 69 62 59 56 52 55 70 78 76 70 63 53 39 19 21 34 39 44 43 39 36 33 34 42 70 86 94
57 52 59 66 71 72 70 67 71 71 71 70 71 66 75 78 75 68 64 61 57 64 73 71 66 57 40 28 14 16 25 33 34 39 38 35 33 32 32 33 38 68 82
67 67 68 72 73 73 76 80 81 81 78 78 75 76 84 86 79 68 66 60 58 70 77 73 71 41 20 10 10 17 27 32 32 30 30 30 30 29 30 30 30 32 51
64 68 69 74 81 80 77 82 84 80 77 81 84 90 92 92 81 70 67 60 52 61 79 76 63 30 16 11 12 16 21 25 26 25 26 25 25 26 28 27 28 30 33
76 75 76 74 68 67 72 83 85 83 80 88 80 81 92 94 76 73 67 61 57 56 61 56 37 26 24 17 15 16 16 19 22 25 27 27 26 26 27 26 27 31 32
55 57 67 65 64 62 57 59 66 65 65 62 62 69 73 73 75 76 67 63 61 59 56 46 36 30 29 28 28 30 30 24 20 24 29 30 29 30 31 28 26 31 38

GFSGL_850_rhum_006.txt.gz
RH
59 42 38 55 70 44 61 41 56 58 43 41 45 43 57 30 78 88 82 73 77 77 74 81 87 90 75 63 60 61 62 64 66 60 60 61 73 82 84 89 88 86 81
42 36 40 62 61 54 33 32 16 40 24 17 28 39 56 52 81 92 88 72 74 74 78 84 84 75 83 83 74 75 66 71 71 72 70 71 69 71 79 87 87 78 77
63 68 57 45 48 74 38 29 38 43 19 22 30 31 43 61 76 88 90 86 78 76 79 83 82 81 82 75 76 68 63 64 65 66 72 71 67 68 66 67 77 69 77
56 68 75 67 81 85 63 36 37 49 22 22 27 41 46 61 61 75 86 88 72 73 83 86 86 85 82 82 79 83 83 82 70 73 67 64 64 66 63 67 64 57 56
59 63 73 86 95 99 73 40 54 53 34 24 25 29 45 54 43 59 79 80 72 62 81 87 85 86 73 61 69 65 66 70 66 70 63 60 59 65 72 65 63 63 62
67 71 75 92 100 94 67 60 65 70 54 43 37 40 55 50 43 62 63 78 83 88 89 88 75 65 68 66 63 62 66 67 66 74 74 67 75 90 74 73 74 73 74
78 80 86 96 87 84 78 78 76 76 71 59 47 55 54 52 53 57 49 62 84 85 90 64 66 73 82 85 79 73 67 66 67 74 96 92 89 88 89 94 90 86 78
65 77 88 82 80 72 78 78 80 86 84 69 67 64 65 71 53 74 72 66 72 81 64 62 62 69 79 82 81 88 73 73 92 92 93 90 92 84 76 85 82 88 90
56 67 60 63 83 76 76 74 82 89 93 97 89 80 99 96 74 72 67 78 82 60 56 50 56 54 78 74 71 69 79 84 82 86 80 64 62 61 57 67 89 91 92
27 34 38 49 67 69 73 83 93 100 99 99 98 99 96 90 58 55 64 65 62 54 54 60 62 67 71 76 73 76 88 85 88 80 83 91 83 87 83 92 93 96 92
25 30 36 47 70 83 92 80 98 99 100 98 97 100 97 74 58 66 61 57 63 61 60 70 86 62 78 75 71 67 82 62 55 62 77 66 59 65 65 76 91 91 78
37 47 48 66 74 89 88 95 98 98 98 99 91 99 96 93 76 61 51 65 62 58 71 78 81 67 70 70 68 71 68 57 72 75 71 57 60 63 65 72 82 80 77
34 50 63 77 94 90 91 98 99 99 100 98 96 99 92 97 65 60 62 62 63 67 85 59 64 70 70 73 71 71 66 77 80 72 59 59 65 68 79 72 66 58 59
45 56 63 77 98 100 100 98 97 97 98 95 98 96 88 71 68 54 59 62 61 56 53 56 62 68 73 76 79 79 84 84 75 69 68 68 68 66 62 56 49 47 64
70 82 99 100 98 98 99 98 97 88 85 84 92 71 75 81 88 82 83 78 72 71 70 80 80 75 74 78 82 83 81 74 70 68 68 66 61 56 52 47 44 52 74
100 98 94 92 96 98 96 96 89 80 66 65 65 67 60 65 62 64 66 62 60 62 67 66 64 68 70 70 73 70 67 67 67 68 65 60 56 51 47 46 44 60 83
91 77 81 81 78 81 85 82 80 68 68 66 58 60 56 55 64 64 60 56 53 55 58 60 66 68 70 71 68 62 61 61 67 64 59 56 50 47 46 45 46 58 74
94 76 80 78 76 74 77 80 75 76 73 56 62 60 61 68 63 57 52 52 55 56 63 64 66 68 69 68 66 64 61 60 54 52 51 47 45 45 43 44 46 56 70
72 74 73 70 69 68 74 72 71 72 68 77 63 67 68 60 55 52 54 57 65 61 60 61 62 60 61 67 69 69 66 53 44 51 48 45 44 42 41 41 41 50 70
71 68 67 67 77 76 78 75 74 73 71 78 74 71 60 60 62 65 62 74 68 62 62 60 62 64 68 74 67 60 49 42 46 45 44 45 44 43 39 38 37 39 58
66 69 72 75 70 69 65 63 61 62 64 61 62 68 76 69 66 69 71 75 70 65 69 68 68 70 72 65 57 47 40 41 44 45 45 43 43 40 38 37 34 34 36
72 72 65 62 65 68 64 66 67 65 61 61 62 74 72 69 74 75 75 73 72 74 70 76 67 60 52 51 45 39 40 42 46 46 45 43 39 37 36 35 32 32 34
68 70 69 70 70 73 73 68 68 66 63 67 71 81 76 81 75 76 79 78 75 75 76 72 66 56 53 44 34 39 40 45 48 48 47 45 40 39 38 35 33 33 34
69 68 68 67 70 64 60 63 67 74 75 82 87 82 79 76 75 82 87 82 78 77 78 71 64 56 50 35 33 38 43 46 34 50 44 49 44 45 42 37 35 36 35
66 67 69 69 69 64 65 65 63 64 70 69 65 70 73 78 87 93 93 83 80 79 77 69 63 59 46 28 30 34 26 14 15 16 27 52 49 51 42 38 40 33 38
58 59 58 59 60 60 59 58 58 58 57 57 59 61 63 65 70 81 83 77 75 74 72 69 63 57 48 32 34 21 16 18 20 19 18 50 46 43 42 39 39 34 36

GFSGL_850_rhum_009.txt.gz
RH
74 77 81 84 87 81 68 74 76 71 76 72 56 42 32 57 30 19 74 70 79 84 81 66 73 81 76 63 56 59 55 55 57 53 58 61 64 68 68 72 77 76 75
69 73 72 67 74 80 74 79 75 72 77 55 25 16 32 34 50 34 27 69 75 79 76 75 81 75 79 75 72 66 67 62 65 64 63 67 67 64 67 64 70 72 68
62 68 75 70 66 68 78 75 63 74 74 41 26 13 28 25 30 24 25 43 84 77 76 76 81 79 78 73 71 65 65 64 66 61 59 59 66 66 60 67 63 70 67
52 57 65 70 68 73 76 74 66 78 74 25 27 12 17 28 32 40 40 32 75 86 80 78 81 82 83 83 84 84 78 79 70 63 60 69 69 61 63 64 67 65 66
46 53 58 68 74 78 76 81 88 85 72 38 29 21 14 33 48 46 46 35 50 89 80 79 84 80 79 80 80 72 76 70 68 66 64 60 58 58 69 68 73 72 69
48 51 57 70 76 80 81 89 89 92 98 76 58 29 19 33 64 61 50 34 78 82 85 83 77 84 82 74 59 62 76 78 73 70 78 73 72 78 80 89 90 78 71
49 55 57 70 72 84 91 93 96 98 97 80 66 40 31 58 74 46 47 56 78 82 83 78 81 84 74 55 59 66 62 71 77 82 82 81 84 73 80 81 82 80 81
60 62 66 70 81 91 96 98 99 99 96 91 83 54 79 88 73 56 54 61 75 73 80 83 88 88 84 65 66 67 65 76 86 83 88 83 89 90 69 68 69 72 74
74 75 77 84 94 97 97 94 86 96 99 98 99 80 83 95 96 78 71 79 75 84 78 86 93 66 66 60 63 64 63 75 82 81 77 79 79 62 69 76 84 70 67
76 80 83 88 90 96 94 84 95 99 100 100 100 95 95 96 94 94 87 68 77 75 83 84 65 61 59 63 64 65 77 89 85 79 86 84 71 77 63 65 71 81 76
66 68 75 88 88 95 95 99 98 98 99 97 100 94 95 95 92 90 67 67 74 76 85 90 73 66 66 58 62 72 74 79 75 70 76 72 65 60 52 56 74 82 74
67 82 86 92 96 98 98 97 96 97 97 98 93 96 100 94 97 78 70 61 75 75 82 78 78 76 64 67 65 62 62 67 69 73 68 63 60 50 52 60 65 63 67
86 94 95 89 100 100 97 95 98 98 97 98 92 95 98 90 92 87 69 67 65 62 69 69 82 71 66 65 63 66 71 66 79 72 67 56 50 57 61 64 58 54 49
85 63 77 96 100 96 100 98 97 97 97 96 97 87 90 92 97 81 71 61 57 62 69 75 69 62 57 67 70 69 74 84 78 74 64 62 58 57 55 52 49 45 41
97 99 99 100 99 98 97 97 96 100 95 89 84 91 92 83 65 62 61 64 64 80 78 78 72 76 68 66 73 76 77 75 70 65 63 59 54 52 51 48 44 42 42
100 99 96 96 96 96 95 97 97 89 85 81 65 69 72 65 70 66 71 72 76 75 71 67 57 56 54 56 60 64 65 64 64 65 63 57 53 51 47 45 43 44 46
86 80 78 73 74 85 78 82 90 83 67 60 62 58 56 55 60 65 68 69 65 56 48 52 52 57 58 60 61 60 57 57 60 61 53 52 48 45 43 42 41 42 49
80 76 72 61 61 63 66 66 62 74 73 66 63 58 60 56 59 66 64 53 47 50 56 52 55 57 58 60 59 56 56 56 52 48 46 44 43 42 41 40 39 39 42
82 70 64 61 58 59 60 60 58 55 56 71 57 62 63 61 66 59 50 47 54 54 51 53 55 56 54 56 60 62 64 58 48 43 50 44 41 41 39 36 36 35 35
66 65 60 58 61 58 58 55 53 53 52 66 72 74 64 67 61 55 52 62 63 57 52 56 56 58 61 65 66 62 55 43 40 42 39 42 41 40 37 35 33 32 32
57 63 59 57 58 55 55 54 51 49 47 51 56 62 61 57 62 62 63 67 68 60 59 62 61 65 67 70 65 54 43 36 37 40 41 40 41 38 36 33 31 29 29
53 60 57 54 52 56 53 50 48 47 46 48 52 59 66 65 60 59 64 70 66 67 65 69 69 61 57 51 51 46 35 35 38 42 42 41 39 36 36 34 31 30 30
58 52 52 52 55 59 60 55 53 53 53 54 58 62 66 70 65 67 72 73 70 69 69 69 67 60 52 51 42 36 33 35 42 44 46 44 40 40 42 38 33 32 33
60 57 59 62 63 59 53 54 55 59 58 60 64 70 78 75 73 72 72 76 72 73 73 72 67 57 52 51 35 32 34 41 45 47 53 49 46 45 47 40 35 35 33
57 60 60 58 56 55 52 51 54 57 59 63 66 66 66 71 76 73 76 78 80 79 75 73 65 59 62 54 36 30 31 29 17 13 16 51 50 49 42 38 38 34 33
53 54 52 53 53 52 51 50 48 51 56 60 56 60 66 64 58 58 74 78 75 76 70 65 64 63 58 50 45 34 21 14 14 14 16 21 50 45 47 38 38 33 33

GFSGL_850_rhum_015.txt.gz
RH
57 60 66 58 59 64 57 58 60 75 72 66 62 64 64 63 58 22 21 32 40 52 54 47 53 54 62 65 59 60 67 59 57 57 55 55 52 49 48 52 55 60 62
56 59 61 62 54 64 59 57 56 60 73 75 68 64 64 62 58 34 19 29 34 45 58 61 56 61 48 39 58 63 63 61 62 61 63 58 62 59 58 57 61 56 61
56 57 60 62 57 46 49 52 55 50 61 70 72 71 67 62 58 54 31 32 34 46 61 66 57 51 49 32 56 51 55 59 63 67 55 64 62 69 71 66 62 64 66
52 56 60 60 50 35 31 36 50 47 65 69 71 71 70 67 65 62 59 33 45 44 56 52 59 58 36 43 59 56 57 54 54 57 60 61 63 65 70 69 68 65 59
50 56 55 52 54 44 42 40 37 54 61 74 81 80 79 75 72 71 71 55 43 46 52 60 66 70 59 61 60 58 58 56 60 62 62 62 66 65 63 64 73 63 51
45 48 53 59 61 56 53 49 51 53 59 70 81 86 85 87 85 80 79 71 51 50 53 59 73 74 73 68 68 64 65 64 63 61 68 68 67 66 55 65 74 69 64
41 46 49 55 60 62 66 69 72 71 79 85 86 87 88 93 82 99 96 86 67 49 59 65 78 81 80 76 79 73 66 63 70 73 71 68 69 64 71 77 71 74 75
42 42 44 50 50 60 66 72 79 82 85 88 84 86 92 96 99 100 100 86 69 74 76 79 74 66 83 73 72 63 66 70 73 70 73 66 62 73 76 75 81 76 62
43 38 42 42 47 55 64 71 75 83 86 87 86 88 86 92 94 96 98 79 71 80 72 76 79 76 75 81 71 69 67 62 69 70 69 65 70 76 75 78 76 74 67
41 38 40 43 46 53 64 67 78 84 82 88 86 93 98 98 92 93 97 90 78 76 88 80 87 76 74 78 71 80 69 71 70 61 64 75 80 77 76 77 68 74 78
40 42 41 42 48 56 65 71 78 79 80 91 97 94 92 91 91 93 88 96 94 95 93 86 78 72 76 64 68 78 73 68 60 65 70 71 63 62 71 68 64 61 60
47 46 52 56 66 72 76 71 75 81 96 98 96 89 90 86 90 92 97 100 100 99 97 91 77 72 79 72 78 69 70 73 58 56 58 60 72 78 58 57 56 56 57
53 64 72 78 85 92 78 65 79 90 95 93 89 90 88 92 83 90 92 90 91 90 87 77 69 72 70 75 69 68 64 56 58 60 66 75 78 70 64 62 60 54 53
68 78 84 86 92 82 86 80 87 87 92 91 90 89 88 90 89 89 83 84 93 84 71 74 78 72 68 67 57 56 58 60 58 62 64 72 68 66 65 60 55 52 48
82 88 86 87 90 86 82 83 90 92 94 90 85 88 84 79 77 79 73 66 78 84 83 72 63 63 60 62 64 60 62 63 66 70 79 80 68 67 59 53 48 44 43
70 84 93 91 90 86 88 92 95 96 89 88 86 84 75 77 70 60 56 51 58 62 62 67 68 66 61 68 63 62 68 72 74 77 74 66 58 53 51 45 44 42 42
65 76 83 85 79 92 96 96 87 93 93 92 87 85 79 77 71 63 50 51 62 69 70 74 74 57 63 60 61 63 60 59 62 64 58 56 55 50 44 44 42 40 38
63 68 70 79 79 83 71 68 74 80 87 86 83 80 66 61 57 52 52 58 66 70 64 52 51 60 59 59 59 60 60 60 60 60 60 46 38 48 44 43 40 38 34
76 74 70 66 63 61 72 74 66 57 73 67 59 62 60 58 50 48 52 58 60 52 58 58 62 57 57 57 56 55 58 61 62 54 40 44 45 43 43 41 39 36 34
84 78 76 77 76 71 72 74 74 65 58 56 53 50 47 46 47 50 53 58 52 55 60 58 56 56 56 56 58 59 63 65 52 39 41 42 43 42 40 40 39 36 36
79 69 71 65 69 74 75 71 69 60 59 58 53 50 48 44 49 52 53 53 52 52 60 60 59 59 58 62 62 62 53 47 38 38 40 41 43 40 41 42 39 39 38
60 58 67 61 64 66 59 52 53 56 63 66 59 58 52 53 56 57 58 60 61 62 59 58 57 59 62 63 61 58 53 50 38 38 39 41 41 43 45 43 43 41 37
61 51 63 60 59 55 56 54 51 50 61 63 63 59 55 59 63 68 62 62 60 62 65 63 60 59 64 63 58 54 52 35 36 42 42 41 33 46 46 46 43 39 36
59 58 53 55 65 61 59 56 55 57 58 58 56 56 57 59 66 66 64 63 68 68 67 66 60 63 65 62 58 54 52 32 34 36 35 22 15 41 47 46 43 37 36
60 61 61 59 63 62 61 60 55 49 60 62 62 58 60 65 66 68 61 55 57 62 58 60 64 68 70 67 58 59 54 32 31 30 29 21 12 49 51 50 41 38 38
56 59 57 55 61 61 56 55 54 56 64 62 61 65 62 66 67 63 56 48 54 67 64 63 70 75 71 64 62 59 46 37 30 17 11 10 17 51 50 46 42 43 39

GFSGL_850_rhum_021.txt.gz
RH
42 44 48 50 53 59 64 58 48 57 65 65 62 69 70 72 63 66 66 61 28 21 29 27 28 30 36 64 70 66 62 59 59 56 55 63 59 57 61 61 58 57 63
39 42 43 45 50 55 61 64 43 55 60 59 67 71 72 74 63 63 64 67 65 44 21 30 26 33 35 34 53 67 68 64 65 66 62 59 59 58 56 60 62 62 69
38 42 43 44 47 51 56 60 47 45 57 56 69 73 74 74 69 66 66 67 69 64 40 22 27 32 39 46 49 55 68 64 62 69 66 63 60 62 54 54 59 62 66
35 42 43 44 42 47 53 58 54 44 49 56 60 69 73 76 73 72 71 68 69 68 67 46 29 32 34 44 59 56 60 63 55 65 68 62 68 64 68 65 67 66 65
38 40 38 42 40 44 51 55 57 47 46 46 55 63 70 75 78 78 75 73 74 74 75 72 53 40 37 39 52 67 69 63 58 72 74 70 64 61 72 75 77 71 64
40 35 36 39 40 42 48 52 57 59 50 48 50 52 59 63 66 72 74 77 78 79 80 82 78 72 48 42 48 61 70 78 71 72 80 74 68 68 79 76 84 74 71
35 38 40 41 39 40 47 52 54 56 59 52 50 53 54 50 50 51 66 75 80 86 87 89 91 89 66 51 52 65 77 79 85 79 80 78 71 77 80 83 85 80 82
33 39 50 44 36 40 46 50 54 56 54 55 49 47 50 43 41 55 66 84 91 85 86 89 97 92 86 68 60 75 74 75 89 72 85 72 74 79 84 85 79 78 81
37 36 36 40 42 44 44 46 54 62 58 52 54 48 43 45 55 67 84 98 94 86 99 84 97 83 81 79 78 84 79 78 87 88 74 70 74 82 84 80 78 88 81
30 27 30 36 42 41 38 44 52 63 60 60 57 55 55 69 74 78 81 92 100 100 97 84 86 73 78 85 89 79 87 74 78 77 75 76 79 75 66 64 70 70 75
23 24 44 43 45 42 44 49 50 61 69 66 67 62 69 75 68 42 58 87 99 95 84 83 77 78 89 92 88 90 85 73 76 76 75 76 57 53 55 66 70 63 62
31 33 37 41 46 56 58 64 65 76 71 68 79 73 80 72 63 77 53 97 90 90 82 81 83 88 90 90 88 88 83 79 77 70 73 57 53 53 69 74 70 67 67
38 39 42 47 49 68 61 68 76 70 74 84 73 82 81 80 93 96 80 80 86 80 86 92 99 95 93 84 74 72 82 84 74 68 56 56 57 57 59 64 69 69 65
28 28 34 50 65 49 54 71 69 69 81 76 72 78 82 68 80 84 63 76 77 90 98 100 95 87 73 71 70 71 71 72 65 56 59 62 63 64 63 68 73 63 48
42 43 51 60 72 75 93 100 100 74 59 58 64 64 66 78 60 55 60 73 84 89 89 98 91 77 72 75 74 71 62 59 60 61 65 67 66 66 73 74 59 53 45
55 57 69 76 82 92 99 100 96 69 59 66 75 83 68 74 61 66 84 92 89 84 94 97 90 78 74 64 61 62 64 67 63 65 65 71 74 79 65 57 52 46 44
79 98 98 88 99 99 100 100 91 94 99 69 52 70 80 81 77 83 84 76 65 74 84 81 84 73 63 59 57 56 59 59 61 64 66 70 69 67 60 50 47 44 43
100 100 100 100 100 100 87 78 52 51 77 86 80 81 86 75 72 74 63 52 50 58 55 58 61 66 66 53 55 60 59 57 56 57 59 62 63 59 43 44 43 41 41
97 99 96 81 87 95 79 69 55 62 93 96 88 91 76 64 58 56 51 41 42 47 53 56 60 57 52 51 59 59 58 57 58 60 60 64 52 43 42 41 42 41 41
59 87 85 86 55 71 76 76 82 94 88 79 85 77 68 67 60 58 56 51 50 52 55 50 51 55 55 58 59 58 60 61 54 42 39 41 40 42 42 43 43 41 42
73 81 80 63 73 85 81 90 88 81 86 85 79 72 58 46 49 57 60 49 47 46 49 51 55 58 61 60 58 61 59 58 60 57 48 43 39 41 41 42 41 40 44
75 76 68 70 73 81 77 78 76 69 67 64 63 55 58 50 50 53 52 52 47 49 49 51 52 56 57 58 60 62 62 60 62 62 53 40 39 41 43 42 37 42 46
69 69 74 69 67 66 60 59 57 56 58 59 56 57 57 52 49 52 47 51 50 51 53 54 56 58 58 58 60 60 62 64 62 57 52 36 40 43 37 26 35 42 44
67 67 60 62 69 69 69 67 70 68 65 68 68 60 56 49 46 46 49 53 54 57 58 56 59 64 61 60 59 60 59 63 58 56 41 32 33 30 26 16 30 44 43
53 61 61 63 64 66 67 67 61 62 60 60 59 61 61 58 53 53 53 56 60 62 64 65 65 67 66 57 61 63 63 57 42 48 42 38 35 33 29 18 21 42 42
55 63 58 62 60 63 66 62 58 54 56 58 56 57 61 59 55 56 57 60 64 64 59 61 69 71 65 62 69 69 62 59 59 46 35 33 23 13 13 17 38 39 40

GFSGL_850_rhum_024.txt.gz
RH
41 41 44 46 49 52 53 55 59 63 60 59 53 66 63 63 70 75 70 57 56 27 26 27 27 25 22 31 47 65 66 64 61 59 58 58 60 62 62 65 62 65 66
35 39 41 41 45 48 50 52 56 62 62 60 54 64 65 61 69 72 64 65 67 64 50 28 26 31 28 29 30 50 63 68 67 64 63 63 62 62 64 64 58 61 62
40 37 40 42 43 45 45 48 52 58 64 56 55 59 60 61 68 70 69 62 65 68 69 67 44 31 34 38 38 39 54 60 70 70 63 65 67 66 65 59 63 67 67
42 41 38 38 37 39 39 44 49 53 60 61 51 55 57 64 68 66 70 70 68 71 72 75 74 48 36 44 51 53 55 60 66 66 65 62 72 74 70 63 57 61 65
34 41 39 38 38 38 39 41 46 48 55 59 50 54 56 57 65 63 66 70 72 74 74 76 79 79 65 45 49 60 70 72 72 70 62 62 74 77 75 66 61 64 63
30 28 36 45 41 37 39 39 44 44 51 58 59 49 54 53 55 63 66 72 77 79 78 78 82 84 85 79 63 54 72 82 80 80 76 70 76 83 76 69 68 70 78
28 28 32 36 38 37 39 40 41 43 46 52 58 54 49 52 58 60 65 69 73 77 78 79 84 88 89 87 84 62 63 72 78 81 80 84 78 75 76 72 73 81 78
28 33 34 40 36 41 45 40 40 42 43 47 51 54 53 50 55 55 56 62 70 72 76 85 88 87 91 95 96 77 69 72 77 75 76 84 74 81 70 75 78 79 76
27 36 42 39 38 40 42 39 39 42 43 45 49 54 54 49 46 48 59 65 70 69 80 89 92 94 92 95 99 86 79 77 84 81 83 84 84 74 77 80 71 75 81
23 23 26 35 38 36 34 37 41 46 45 46 47 50 53 53 50 41 54 61 66 76 81 96 98 89 90 88 86 80 82 85 84 84 78 83 82 81 73 55 54 61 70
21 31 38 42 38 35 38 51 58 59 57 52 48 50 56 59 49 42 54 60 70 76 86 100 92 85 86 78 79 81 84 88 88 76 79 79 79 64 50 49 60 69 69
32 34 37 41 44 47 49 60 42 62 65 61 63 62 58 58 55 48 67 85 90 94 98 94 85 81 76 75 75 76 82 91 82 77 76 73 64 54 53 55 62 66 68
45 46 51 60 70 69 66 57 55 50 84 99 89 100 70 64 58 65 85 82 92 100 95 88 79 76 78 86 86 86 84 86 84 81 75 64 56 57 58 60 65 69 71
51 56 57 60 64 77 83 97 90 59 73 44 61 90 84 67 70 93 97 93 98 93 90 85 79 85 89 81 76 75 72 72 82 78 69 57 58 60 64 66 70 72 64
47 48 54 63 70 80 94 90 100 92 94 90 100 100 97 73 77 69 76 98 83 84 85 87 93 95 73 65 69 72 73 73 73 62 59 60 65 67 69 77 73 61 56
37 45 55 58 70 80 91 99 100 99 100 100 100 94 77 74 99 96 83 96 84 82 96 79 75 80 71 71 76 76 75 64 60 63 67 66 68 70 75 72 61 56 46
26 26 53 68 66 72 99 99 99 100 100 99 96 74 60 52 66 77 77 88 89 98 94 71 80 89 72 78 71 63 61 63 65 61 58 61 67 65 67 62 47 44 43
36 51 48 64 75 96 99 99 100 96 94 74 60 51 50 49 42 48 94 100 99 92 61 69 82 88 83 66 62 58 57 58 55 55 52 53 58 63 62 44 41 40 38
98 100 100 96 98 99 100 100 99 94 96 97 73 70 55 48 67 68 79 80 74 58 70 75 73 72 68 62 56 58 58 58 57 58 56 55 62 59 43 41 40 39 38
100 85 75 96 99 100 98 84 67 55 76 92 87 98 92 80 87 90 82 70 51 47 49 51 53 63 61 53 54 59 59 58 55 54 50 42 41 37 40 40 38 35 38
76 78 74 73 97 89 81 63 50 51 57 64 80 99 96 74 62 66 58 46 46 43 43 48 50 51 53 54 59 59 60 60 58 59 57 46 41 38 39 41 41 35 36
75 78 75 65 74 72 82 64 50 51 58 64 83 92 68 55 56 54 51 44 45 44 43 46 50 55 59 60 58 59 62 62 62 63 61 56 44 39 40 42 41 34 37
71 68 70 73 72 69 82 94 75 94 85 68 72 72 62 53 56 58 57 47 46 47 50 50 49 54 58 58 59 60 61 63 63 62 59 56 40 39 40 40 24 26 35
66 68 70 67 60 63 70 65 62 64 62 62 64 62 53 58 65 62 55 49 49 49 50 51 55 56 57 58 58 58 62 62 63 59 53 47 34 38 34 27 21 19 29
58 60 63 67 69 74 74 74 74 72 70 68 64 64 73 72 65 59 53 51 53 52 53 54 55 59 62 61 61 58 62 62 58 41 45 42 36 36 35 33 28 15 30
63 64 66 66 73 77 78 91 88 87 78 71 66 70 66 68 67 70 68 63 60 57 57 61 63 62 67 64 62 63 66 62 58 54 44 33 33 35 22 16 15 25 35

GFSGL_850_rhum_030.txt.gz
RH
34 34 40 42 45 46 48 50 53 55 60 59 64 59 76 76 55 56 65 84 60 58 48 46 24 31 60 60 64 62 61 60 54 51 60 62 58 56 71 64 73 74 67
33 29 30 33 36 40 42 45 46 50 53 56 59 62 60 83 72 57 60 78 64 63 58 50 32 30 28 45 65 60 61 62 58 61 58 69 72 70 62 60 71 68 68
63 44 36 30 33 36 35 37 42 44 47 51 55 60 61 63 69 54 56 58 61 58 64 54 41 38 28 51 35 59 68 71 66 62 59 70 68 79 83 73 87 85 78
60 67 50 30 27 29 32 32 35 39 44 47 50 54 58 60 62 55 49 53 55 59 60 65 58 62 60 57 50 35 47 59 70 70 63 60 71 74 79 68 75 80 73
56 63 62 34 31 31 31 31 33 38 40 43 46 49 53 59 73 50 42 46 51 54 60 62 61 64 65 66 68 67 64 62 61 64 68 64 66 68 78 74 76 66 68
54 56 60 53 42 33 36 33 34 37 37 38 42 46 49 53 65 59 39 42 44 47 53 64 65 65 66 70 73 77 77 74 74 64 66 64 70 77 81 82 80 72 65
48 58 60 58 43 37 46 48 39 38 43 37 38 43 46 47 50 49 38 38 42 44 46 68 76 81 67 70 74 80 82 86 79 82 81 72 73 85 84 95 92 86 83
48 46 51 58 53 61 63 49 42 46 51 50 41 40 43 45 46 49 51 45 44 51 55 59 64 68 80 68 76 80 84 86 86 78 75 92 86 93 75 89 96 94 89
44 39 30 42 68 85 58 37 49 63 71 90 93 80 52 45 45 45 50 55 51 52 52 60 70 66 80 69 78 86 86 86 90 87 83 78 81 78 84 96 92 93 84
31 28 37 34 43 48 43 61 67 88 91 91 91 87 86 63 67 59 49 52 63 67 74 71 55 56 65 68 76 86 90 88 94 92 92 74 77 80 80 84 90 82 69
60 61 45 33 31 36 40 42 50 59 84 83 81 64 69 80 58 64 52 49 54 70 71 85 90 65 62 61 74 86 87 97 97 99 94 83 89 88 81 84 92 72 59
49 51 54 51 50 74 56 55 60 61 59 62 64 63 33 44 47 43 44 46 50 64 72 68 83 64 47 60 79 85 99 100 99 99 99 97 98 96 93 91 68 53 66
50 47 51 49 48 52 64 78 94 91 84 86 83 94 74 43 32 38 46 56 56 69 73 82 85 62 57 74 88 99 97 100 98 94 93 93 89 84 76 79 54 50 53
36 38 46 76 82 89 84 92 90 84 90 78 78 82 66 69 47 43 56 69 82 87 99 99 99 87 92 100 100 100 99 90 87 92 90 87 86 78 80 78 73 74 68
72 78 82 80 83 89 88 80 83 79 76 85 83 79 81 90 78 54 53 44 51 67 99 100 99 99 100 96 100 100 96 91 80 91 89 86 80 81 73 70 69 67 67
76 68 63 61 65 76 76 85 84 82 80 80 78 77 69 74 84 91 90 81 96 94 100 100 98 95 75 76 99 97 95 98 98 95 91 84 79 73 70 74 74 70 60
47 51 66 66 60 56 61 70 70 90 76 77 72 67 67 62 73 78 87 97 100 100 99 82 69 62 66 75 90 95 98 100 98 92 87 80 72 70 72 73 72 65 56
48 46 70 67 79 78 90 92 93 93 99 86 92 95 92 88 88 99 100 100 100 99 67 63 65 60 68 83 94 87 98 99 91 88 84 74 72 73 76 68 62 56 51
77 84 84 84 60 66 79 92 96 97 98 98 98 100 99 96 99 100 97 97 98 84 72 68 68 72 89 90 87 95 96 92 82 85 77 74 74 70 64 57 53 51 45
74 64 80 86 82 88 92 90 98 98 100 98 98 95 96 99 100 99 100 100 86 73 75 91 95 92 84 94 98 93 92 88 84 81 75 71 66 60 54 53 47 41 45
80 84 76 79 84 90 88 89 96 99 96 80 78 74 81 80 91 100 100 84 76 99 98 100 99 76 97 98 94 88 80 80 79 73 68 66 61 55 51 44 41 39 36
91 90 83 79 84 92 93 95 94 95 99 88 79 94 92 82 80 82 97 98 98 91 92 93 92 98 100 82 79 80 78 71 69 62 61 58 57 55 47 42 38 36 36
87 88 84 93 98 94 91 89 91 94 87 90 94 95 99 98 100 100 99 96 94 79 79 88 99 98 93 85 80 72 62 59 60 60 60 57 53 52 46 43 38 36 36
85 88 89 94 94 96 84 82 80 96 94 86 98 100 100 100 99 100 100 100 100 100 98 95 88 77 82 77 69 59 55 56 60 61 58 56 53 52 49 44 39 37 36
82 91 98 100 99 97 87 78 83 83 97 99 100 100 99 98 99 93 89 88 87 78 80 75 70 70 60 61 59 55 53 59 61 60 65 59 60 55 51 43 39 36 34
77 84 89 92 97 97 100 100 100 90 84 94 100 100 95 87 89 90 82 82 79 72 68 64 62 65 67 63 60 58 56 56 57 59 65 62 57 51 49 44 40 36 34

GFSGL_850_rhum_033.txt.gz
RH
34 34 40 42 45 47 52 61 64 69 75 64 75 74 70 68 77 81 79 79 81 70 67 68 43 37 54 52 56 55 54 54 50 45 49 57 58 52 66 65 69 77 68
50 36 37 39 40 47 46 50 55 56 57 66 63 72 67 62 76 82 76 74 85 92 82 66 52 36 25 45 58 56 57 55 57 52 51 62 64 73 53 74 71 63 64
69 67 61 44 40 40 42 40 44 48 50 55 64 68 62 62 64 67 71 50 72 85 74 72 53 50 34 34 36 56 62 63 64 67 58 58 64 71 82 79 80 82 69
56 65 70 66 38 38 40 37 37 40 40 42 57 59 60 56 62 57 47 51 47 66 75 67 67 68 42 26 35 40 51 60 66 66 64 57 58 63 73 75 74 84 82
51 57 65 69 70 64 54 38 29 33 34 35 41 49 53 55 70 62 56 54 41 46 72 70 73 81 68 39 49 54 62 56 60 60 67 66 59 58 67 70 71 70 71
47 52 59 68 76 78 73 53 37 31 30 29 32 38 44 60 71 74 69 65 62 55 64 78 59 78 80 62 50 64 67 70 71 75 64 62 62 63 67 70 69 73 74
46 52 55 62 72 78 79 77 49 35 39 32 32 38 41 42 45 56 68 74 69 62 62 70 75 80 78 78 58 58 71 74 76 75 76 70 69 72 73 76 79 79 87
48 52 56 60 68 77 79 81 79 73 62 54 47 45 41 38 41 43 48 62 69 68 63 67 81 68 77 75 64 58 62 73 75 77 80 78 71 73 79 78 74 88 88
47 52 53 66 70 77 55 56 70 82 78 65 65 63 52 40 41 40 45 50 60 64 63 81 87 81 71 69 75 71 62 68 75 78 81 86 81 82 80 84 91 93 93
28 47 57 66 74 74 58 58 70 77 61 77 77 66 57 46 38 35 38 51 60 63 60 70 81 81 79 66 74 79 76 64 77 78 76 86 87 84 73 67 86 93 93
50 56 63 64 71 74 67 54 56 73 87 82 78 72 57 41 37 32 33 38 46 55 68 78 69 69 72 75 68 70 66 72 77 86 93 99 92 88 77 67 73 84 83
43 54 63 71 74 78 74 75 84 88 89 81 85 73 70 52 43 47 39 34 35 51 66 74 77 83 83 84 90 93 88 82 98 95 98 100 100 97 93 97 77 76 85
48 55 64 73 76 70 78 86 90 91 90 89 89 88 84 77 90 83 67 71 66 51 50 70 72 73 75 84 90 100 100 96 95 99 100 98 96 90 92 92 94 77 67
59 62 67 75 79 83 78 86 87 81 84 86 77 83 76 83 81 82 89 95 97 97 93 75 70 72 73 79 96 98 99 99 92 90 97 91 92 92 89 89 90 74 54
74 75 76 74 77 82 84 71 75 77 72 71 75 71 69 70 67 73 76 86 88 97 100 100 93 83 82 89 97 80 100 96 98 82 76 75 94 89 83 79 83 75 73
78 74 66 62 66 78 73 85 76 73 74 75 71 72 73 71 68 70 72 75 85 100 99 99 99 100 96 92 88 87 99 74 81 84 78 85 95 87 80 79 73 66 64
76 64 60 56 50 49 56 61 61 62 68 66 70 76 79 80 79 81 78 81 83 91 100 100 100 100 100 98 100 89 72 67 80 83 82 86 87 82 79 74 71 72 67
51 46 63 65 63 64 65 68 71 71 69 78 86 88 86 80 89 94 93 95 100 100 99 97 98 100 100 100 100 92 91 91 92 89 88 91 90 79 76 70 69 67 64
71 71 68 75 74 73 62 57 63 73 80 84 86 88 91 89 84 85 91 100 98 97 98 99 100 100 100 100 100 98 93 90 100 90 89 89 82 75 70 68 65 61 55
69 71 74 70 69 70 74 82 86 93 96 97 94 80 71 73 69 62 75 100 100 100 99 100 100 99 98 87 99 91 99 95 96 94 87 80 74 70 67 65 58 51 52
67 71 68 70 74 76 76 74 74 75 87 84 92 71 68 63 96 95 76 96 100 80 92 100 99 100 87 85 94 98 95 96 92 86 80 75 72 68 60 52 49 46 42
68 66 64 65 67 72 72 76 75 83 89 95 86 94 83 79 93 98 94 86 85 93 86 88 96 97 98 98 98 96 92 87 84 81 75 72 67 61 54 49 43 40 37
72 78 84 89 86 81 82 89 96 98 98 93 95 98 93 94 95 94 89 89 88 93 98 91 94 98 97 98 98 88 80 76 78 76 68 62 57 55 52 45 41 36 34
82 82 79 80 81 82 83 90 92 99 94 99 99 98 97 98 98 91 87 93 98 97 95 99 92 91 99 97 89 82 77 75 73 64 59 57 53 51 49 44 40 36 34
72 77 90 90 98 98 100 99 98 99 99 99 98 99 94 99 96 90 91 95 98 92 89 96 98 87 91 89 84 71 63 58 57 59 60 56 53 50 50 45 42 37 35
69 74 80 82 86 96 98 99 100 98 99 100 100 93 94 91 87 89 81 77 81 80 81 81 81 84 82 75 65 56 52 54 57 59 61 56 57 55 52 50 42 38 35

GFSGL_850_rhum_036.txt.gz
RH
53 32 31 34 31 31 42 55 64 68 77 58 78 66 62 66 67 78 75 73 70 75 64 41 29 27 30 51 53 53 53 52 50 42 47 52 54 56 56 56 63 61 66
61 58 46 39 30 30 36 43 54 64 63 75 63 79 71 68 58 63 63 59 81 77 70 56 43 34 31 34 52 54 53 54 55 54 49 58 60 60 62 59 50 60 72
81 72 66 45 38 35 35 38 46 50 57 58 69 68 73 68 63 56 52 49 52 78 74 68 54 52 37 26 28 45 54 55 56 56 55 51 58 60 67 69 68 63 58
70 81 76 70 54 40 39 38 37 42 44 49 53 63 70 68 62 60 60 58 54 59 86 80 61 53 45 36 30 22 37 55 53 53 50 56 56 62 64 68 67 67 72
58 66 68 70 71 67 64 54 46 39 37 37 42 51 67 73 62 58 61 62 58 46 50 84 78 54 49 40 41 35 22 36 56 58 58 60 63 60 61 63 69 70 72
49 54 62 61 67 77 74 71 68 61 51 50 48 43 48 53 49 45 49 64 70 63 55 50 63 63 58 50 46 44 38 40 47 48 55 63 62 64 62 63 66 71 72
45 48 54 59 60 66 73 76 78 68 65 58 52 41 34 34 37 38 41 49 58 68 63 60 64 62 70 67 70 63 62 55 56 58 62 67 67 63 64 67 67 70 70
43 44 50 56 58 62 66 70 74 75 69 63 64 51 39 27 28 33 37 42 48 53 56 54 58 63 72 67 65 74 64 62 56 59 65 67 72 72 69 70 68 72 72
42 43 45 51 56 60 64 67 75 79 77 72 64 63 45 34 33 30 36 45 55 53 56 60 61 59 60 72 78 71 69 55 61 67 68 72 74 77 76 76 77 77 75
28 28 43 49 51 57 64 72 78 78 77 82 74 65 60 44 41 41 52 68 57 55 68 71 67 64 63 64 83 84 84 74 61 57 70 72 79 83 85 86 86 77 83
25 33 35 38 44 56 66 79 84 86 92 93 91 87 72 50 43 50 56 77 63 56 60 76 71 63 63 78 84 80 74 66 61 67 65 74 79 84 84 90 87 80 79
28 35 40 44 51 59 72 78 88 91 92 88 91 87 70 58 64 71 75 85 86 100 90 83 84 83 82 82 88 90 84 85 84 81 81 78 82 80 83 95 92 84 81
30 35 42 49 60 66 74 82 90 90 88 88 89 92 91 88 95 96 94 97 99 100 99 97 86 84 82 85 89 91 96 100 100 100 96 81 81 78 94 91 95 93 87
46 50 51 56 63 73 71 83 85 92 90 90 96 96 94 92 93 87 88 88 92 98 97 97 99 91 80 83 81 87 97 99 100 99 98 97 92 98 98 86 93 77 78
50 61 67 69 76 83 84 78 90 84 89 92 91 84 80 80 81 79 78 82 77 76 82 88 96 98 97 86 85 85 87 100 100 100 100 99 100 100 88 87 96 91 71
73 76 74 75 74 79 87 82 78 79 83 79 76 74 77 78 75 73 72 72 77 79 78 84 87 92 95 90 91 87 96 100 100 98 100 99 100 92 92 85 96 88 88
80 74 70 67 63 68 65 78 76 71 68 71 74 74 72 70 70 70 71 74 78 86 96 93 93 93 88 89 98 98 93 100 100 97 99 96 65 81 100 96 99 91 83
71 64 59 58 56 61 67 68 64 70 80 83 79 78 78 82 84 84 85 84 82 81 92 100 100 100 99 93 89 99 100 100 100 92 96 73 94 98 100 96 92 88 71
66 66 65 56 60 62 61 65 66 66 67 70 71 68 67 60 53 52 57 64 65 74 98 100 100 100 100 91 96 99 100 100 100 100 94 82 99 99 100 95 89 76 70
62 68 67 67 68 70 71 74 75 74 79 84 75 59 57 57 65 66 68 61 68 90 86 88 96 97 98 100 99 100 98 100 98 99 99 84 100 98 93 84 81 71 72
64 67 69 71 73 73 73 73 74 76 84 84 82 84 80 76 93 97 96 89 85 86 86 82 98 98 95 95 99 100 99 100 99 98 99 97 98 94 88 78 68 67 66
65 63 66 65 72 75 75 80 86 90 92 90 92 92 87 97 96 97 96 92 83 87 91 83 83 89 76 68 82 96 98 98 100 99 100 99 92 86 76 70 70 65 55
71 76 80 81 80 83 87 84 94 95 99 100 100 99 93 87 89 90 85 84 86 87 90 97 93 88 82 81 78 80 85 91 98 95 94 87 80 74 70 66 56 51 49
77 85 86 84 86 94 98 93 99 99 98 98 97 93 89 84 84 91 91 86 86 87 86 91 98 99 92 91 99 98 100 99 95 91 83 78 75 72 65 57 54 45 42
82 85 89 83 84 90 90 95 100 97 99 98 96 96 92 92 89 90 86 95 83 82 82 90 85 86 81 80 81 87 82 87 82 81 76 73 68 63 58 54 48 44 39
70 76 80 88 95 98 99 100 99 97 96 96 98 99 99 92 87 85 84 84 88 92 89 87 83 89 93 92 87 81 78 78 76 74 63 60 56 53 51 49 47 43 40